Location: Huntsville
(41.2590°N, 111.7678°W)
Time: 04:45:48
(UTC+00:00)

Transit 2A Rocket - Visible Passes

Search period start: 06 October 2022 00:00
Search period end: 16 October 2022 00:00
Orbit: 593 x 908 km, 66.7° (Epoch: 05 October)

Date Brightness Start Highest point End Pass type
(mag) Time Alt. Az. Time Alt. Az. Time Alt. Az.
06 Oct 5.8 11:38:43 11° S 11:42:27 38° ESE 11:46:27 10° NE visible
07 Oct 6.8 10:58:07 16° SE 10:59:46 20° ESE 11:02:54 10° ENE visible
07 Oct 5.1 12:38:04 11° WSW 12:41:58 38° NW 12:46:02 10° NNE visible
08 Oct 4.4 11:57:14 34° SW 11:58:59 72° WNW 12:03:20 10° NNE visible
09 Oct 4.9 11:16:14 58° ESE 11:16:14 58° ESE 11:20:23 10° NE visible
09 Oct 6.2 12:56:18 10° W 12:59:01 16° NW 13:01:49 10° N visible
10 Oct 6.8 10:35:06 22° ENE 10:35:06 22° ENE 10:37:08 10° NE visible
10 Oct 5.5 12:15:01 25° WNW 12:15:51 27° NW 12:19:34 10° N visible
11 Oct 5.2 11:33:46 40° NNW 11:33:46 40° NNW 11:37:00 10° NNE visible
12 Oct 6.5 10:52:25 24° NNE 10:52:25 24° NNE 10:54:12 10° NNE visible
12 Oct 6.5 12:32:19 12° NW 12:33:02 12° NW 12:34:49 10° NNW visible
13 Oct 7.7 10:11:00 11° NE 10:11:00 11° NE 10:11:09 10° NE visible
13 Oct 6.3 11:50:54 18° NNW 11:50:54 18° NNW 11:52:59 10° N visible
14 Oct 6.8 11:09:25 17° N 11:09:25 17° N 11:10:35 10° NNE visible
15 Oct 7.6 10:27:53 10° NNE 10:27:53 10° NNE 10:27:55 10° NNE visible
